Weather in New Westminster

Canada     49°12′15″N   122°54′23″W
temp.,
°C
wind,
m/s
gust,
m/s
humid.,
%
clouds,
%
prec.,
mm/h
press.,
hPa
HPBL,
m
27 february, sat
sat2701:000nne11730 0.0 101927
04:00−1ene12700 0.0 102152
07:00−1ne12640 0.0 102327
10:00+4ese125533 0.0 1023477
13:00+6s2258100 0.0 10231000
16:00+5ssw2260100 0.0 1023690
19:00+3ne2278100 0.1 1025181
22:00+2ne2396100 0.6 1025127
28 february, sun
sun2801:00+3ene2397100 0.8 1024159
04:00+3ene1298100 1.2 1025109
07:00+3ene1296100 0.2 1025115
10:00+4ene2394100 0.4 1024189
13:00+5e2391100 0.4 1023212
16:00+5ne2295100 0.6 102299
19:00+5ne2295100 0.3 102051
22:00+5ene2594100 0.3 1020204
1 march, mon
mon101:00+6ne2389100 0.0 101893
04:00+6nne2288100 0.0 101742
07:00+4ne1189100 0.0 101523
10:00+8se2276100 0.0 1014240
13:00+10sse3664100 0.0 1012869
16:00+10sse376674 0.3 1011819
19:00+7sw3884100 0.9 1012588
22:00+5wsw2487100 1.3 1013245
2 march, tue
tue201:00+4w258594 0.3 1013442
04:00+2wsw028987 0.6 1014153
07:00+2e249399 0.4 1014218
10:00+4ese237496 0.8 1013885
13:00+5s236597 0.4 10121030
16:00+6sse366697 0.6 10101057
19:00+3ene2479100 0.6 1009283
22:00+2ne2490100 0.9 1009161
3 march, wed
wed301:00+2e2795100 0.5 1008537
04:00+2ene1595100 2.6 1006334
07:00+1ene2398100 4.4 1007191
10:00+2e2597100 7.7 1006279
13:00+3e3596100 1.3 1007348
16:00+4e2497100 5.3 1007221
19:00+4e21197100 0.7 1008536
22:00+4ene2794100 2.0 1009395